Wetterdaten: Woche 22.01.18 - 28.01.18 (KW4)
Datum Zeit Temp. Aussen Temp. o. S. +5cm Feuchte Auss BlattFeu 1 Luftdruck Regen Sonnenschein Regendauer Solar Windben Empfang
22.01.2018 00:00 1,9 C 1,1 C 0,3 C 93 % 12 lf 1008,7 hPa 0,6 l/m 0,00 h 1,00 h 0 W/m 28,5 km/h (4 Bft) 97,55 %
22.01.2018 01:00 1,7 C 1,1 C 0,6 C 95 % 15 lf 1007,6 hPa 0,4 l/m 0,00 h 0,90 h 0 W/m 29,4 km/h (5 Bft) 95,59 %
22.01.2018 02:00 1,8 C 1,6 C 0,6 C 97 % 15 lf 1006,6 hPa 0,2 l/m 0,00 h 0,97 h 0 W/m 27,4 km/h (4 Bft) 98,15 %
22.01.2018 03:00 1,9 C 1,7 C 1,1 C 97 % 15 lf 1005,9 hPa 0,4 l/m 0,00 h 0,93 h 0 W/m 28,2 km/h (4 Bft) 94,09 %
22.01.2018 04:00 2,1 C 2,0 C 1,1 C 98 % 15 lf 1005,5 hPa 0,4 l/m 0,00 h 0,80 h 0 W/m 19,4 km/h (3 Bft) 96,53 %
22.01.2018 05:00 2,2 C 2,2 C 1,1 C 98 % 15 lf 1004,9 hPa 0,4 l/m 0,00 h 0,93 h 0 W/m 19,4 km/h (3 Bft) 98,56 %
22.01.2018 06:00 2,6 C 2,5 C 1,7 C 98 % 15 lf 1004,4 hPa 0,4 l/m 0,00 h 0,70 h 0 W/m 18,5 km/h (3 Bft) 95,13 %
22.01.2018 07:00 2,9 C 2,8 C 2,0 C 98 % 15 lf 1004,7 hPa 0,6 l/m 0,00 h 0,70 h 0 W/m 10,3 km/h (2 Bft) 94,91 %
22.01.2018 08:00 3,5 C 4,1 C 3,0 C 99 % 15 lf 1004,9 hPa 0,0 l/m 0,00 h 0,00 h 6 W/m 8,4 km/h (2 Bft) 98,30 %
22.01.2018 09:00 6,1 C 6,6 C 5,1 C 99 % 15 lf 1005,4 hPa 0,0 l/m 0,03 h 0,00 h 30 W/m 14,2 km/h (3 Bft) 93,84 %
22.01.2018 10:00 7,1 C 7,8 C 6,3 C 99 % 15 lf 1005,8 hPa 0,0 l/m 0,30 h 0,00 h 117 W/m 17,2 km/h (3 Bft) 97,40 %
22.01.2018 11:00 7,4 C 9,0 C 6,9 C 99 % 6 lf 1006,3 hPa 0,0 l/m 0,37 h 0,00 h 154 W/m 16,6 km/h (3 Bft) 96,31 %
22.01.2018 12:00 7,9 C 10,3 C 7,7 C 99 % 0 lf 1006,5 hPa 0,0 l/m 0,20 h 0,00 h 167 W/m 18,4 km/h (3 Bft) 95,00 %
22.01.2018 13:00 8,2 C 9,5 C 7,3 C 98 % 0 lf 1006,8 hPa 0,0 l/m 0,00 h 0,00 h 102 W/m 16,5 km/h (3 Bft) 96,94 %
22.01.2018 14:00 8,3 C 9,2 C 7,2 C 93 % 0 lf 1007,2 hPa 0,0 l/m 0,00 h 0,00 h 92 W/m 14,7 km/h (3 Bft) 95,15 %
22.01.2018 15:00 8,3 C 8,7 C 6,7 C 90 % 0 lf 1008,3 hPa 0,0 l/m 0,00 h 0,00 h 55 W/m 15,3 km/h (3 Bft) 95,81 %
22.01.2018 16:00 8,1 C 8,0 C 6,0 C 89 % 0 lf 1009,2 hPa 0,0 l/m 0,00 h 0,00 h 17 W/m 15,1 km/h (3 Bft) 98,37 %
22.01.2018 17:00 7,7 C 7,3 C 5,7 C 90 % 0 lf 1010,7 hPa 0,0 l/m 0,00 h 0,03 h 5 W/m 15,5 km/h (3 Bft) 94,45 %
22.01.2018 18:00 7,4 C 7,2 C 5,6 C 91 % 0 lf 1011,9 hPa 0,0 l/m 0,00 h 0,00 h 0 W/m 13,2 km/h (3 Bft) 96,02 %
22.01.2018 19:00 7,2 C 7,0 C 5,6 C 92 % 0 lf 1013,1 hPa 0,0 l/m 0,00 h 0,00 h 0 W/m 15,2 km/h (3 Bft) 98,15 %
22.01.2018 20:00 7,1 C 7,0 C 5,6 C 93 % 0 lf 1014,2 hPa 0,0 l/m 0,00 h 0,00 h 0 W/m 17,5 km/h (3 Bft) 96,01 %
22.01.2018 21:00 6,9 C 6,7 C 5,6 C 93 % 0 lf 1015,0 hPa 0,0 l/m 0,00 h 0,00 h 0 W/m 17,4 km/h (3 Bft) 94,87 %
22.01.2018 22:00 6,8 C 6,7 C 5,0 C 92 % 1 lf 1015,9 hPa 0,0 l/m 0,00 h 0,07 h 0 W/m 15,1 km/h (3 Bft) 98,08 %
22.01.2018 23:00 6,6 C 5,8 C 4,6 C 93 % 11 lf 1016,8 hPa 0,4 l/m 0,00 h 0,70 h 0 W/m 14,4 km/h (3 Bft) 94,16 %
23.01.2018 00:00 6,3 C 5,6 C 4,4 C 95 % 15 lf 1017,5 hPa 0,4 l/m 0,00 h 0,67 h 0 W/m 14,2 km/h (3 Bft) 98,28 %
23.01.2018 01:00 6,2 C 5,6 C 4,3 C 95 % 15 lf 1018,1 hPa 0,2 l/m 0,00 h 0,60 h 0 W/m 15,8 km/h (3 Bft) 94,45 %
23.01.2018 02:00 6,1 C 5,6 C 4,4 C 96 % 15 lf 1018,5 hPa 0,2 l/m 0,00 h 0,63 h 0 W/m 18,2 km/h (3 Bft) 95,73 %
23.01.2018 03:00 5,9 C 5,5 C 4,3 C 96 % 15 lf 1019,0 hPa 0,2 l/m 0,00 h 0,17 h 0 W/m 16,9 km/h (3 Bft) 98,08 %
23.01.2018 04:00 5,8 C 5,0 C 3,9 C 96 % 15 lf 1019,4 hPa 0,0 l/m 0,00 h 0,10 h 0 W/m 12,4 km/h (3 Bft) 97,03 %
23.01.2018 05:00 5,7 C 5,1 C 3,9 C 96 % 14 lf 1019,7 hPa 0,0 l/m 0,00 h 0,00 h 0 W/m 10,6 km/h (2 Bft) 90,44 %
23.01.2018 06:00 5,7 C 5,6 C 3,9 C 96 % 4 lf 1020,2 hPa 0,0 l/m 0,00 h 0,00 h 0 W/m 10,3 km/h (2 Bft) 98,98 %
23.01.2018 07:00 5,7 C 5,7 C 4,0 C 95 % 0 lf 1020,5 hPa 0,0 l/m 0,00 h 0,00 h 0 W/m 12,3 km/h (3 Bft) 95,45 %
23.01.2018 08:00 6,1 C 6,1 C 4,4 C 95 % 0 lf 1020,8 hPa 0,0 l/m 0,00 h 0,00 h 10 W/m 16,1 km/h (3 Bft) 96,87 %
23.01.2018 09:00 6,4 C 6,7 C 4,8 C 93 % 0 lf 1021,0 hPa 0,0 l/m 0,00 h 0,00 h 22 W/m 14,4 km/h (3 Bft) 95,45 %
23.01.2018 10:00 6,9 C 7,4 C 5,4 C 91 % 1 lf 1021,3 hPa 0,0 l/m 0,00 h 0,07 h 67 W/m 13,8 km/h (3 Bft) 96,59 %
23.01.2018 11:00 7,7 C 8,6 C 6,4 C 90 % 0 lf 1021,4 hPa 0,0 l/m 0,10 h 0,00 h 123 W/m 19,4 km/h (3 Bft) 97,44 %
23.01.2018 12:00 8,4 C 9,3 C 7,6 C 88 % 0 lf 1020,9 hPa 0,0 l/m 0,00 h 0,00 h 141 W/m 21,6 km/h (4 Bft) 96,38 %
23.01.2018 13:00 9,1 C 11,5 C 9,1 C 85 % 0 lf 1020,4 hPa 0,0 l/m 0,30 h 0,00 h 191 W/m 20,6 km/h (4 Bft) 95,43 %
23.01.2018 14:00 10,2 C 12,9 C 9,3 C 78 % 0 lf 1019,6 hPa 0,0 l/m 0,77 h 0,00 h 184 W/m 26,0 km/h (4 Bft) 98,19 %
23.01.2018 15:00 10,1 C 10,3 C 9,1 C 78 % 0 lf 1019,1 hPa 0,0 l/m 0,03 h 0,00 h 59 W/m 24,0 km/h (4 Bft) 95,44 %
23.01.2018 16:00 9,9 C 9,6 C 8,1 C 80 % 0 lf 1018,5 hPa 0,0 l/m 0,00 h 0,10 h 14 W/m 21,7 km/h (4 Bft) 95,38 %
23.01.2018 17:00 9,7 C 9,4 C 8,1 C 81 % 0 lf 1018,5 hPa 0,0 l/m 0,00 h 0,00 h 4 W/m 19,4 km/h (3 Bft) 97,43 %
23.01.2018 18:00 9,8 C 9,4 C 8,3 C 83 % 0 lf 1018,5 hPa 0,0 l/m 0,00 h 0,00 h 0 W/m 19,7 km/h (3 Bft) 97,15 %
23.01.2018 19:00 9,8 C 9,4 C 8,3 C 85 % 0 lf 1018,0 hPa 0,0 l/m 0,00 h 0,17 h 0 W/m 24,9 km/h (4 Bft) 93,95 %
23.01.2018 20:00 9,9 C 9,9 C 8,3 C 87 % 0 lf 1018,0 hPa 0,0 l/m 0,00 h 0,00 h 0 W/m 26,9 km/h (4 Bft) 98,79 %
23.01.2018 21:00 9,9 C 9,6 C 8,4 C 90 % 0 lf 1017,9 hPa 0,0 l/m 0,00 h 0,00 h 0 W/m 30,0 km/h (5 Bft) 94,80 %
23.01.2018 22:00 9,9 C 9,9 C 8,6 C 92 % 0 lf 1017,7 hPa 0,0 l/m 0,00 h 0,00 h 0 W/m 30,0 km/h (5 Bft) 97,14 %
23.01.2018 23:00 10,6 C 10,6 C 9,3 C 91 % 0 lf 1017,6 hPa 0,0 l/m 0,00 h 0,00 h 0 W/m 28,6 km/h (4 Bft) 95,73 %
24.01.2018 00:00 10,8 C 10,6 C 9,4 C 92 % 0 lf 1017,9 hPa 0,0 l/m 0,00 h 0,00 h 0 W/m 28,7 km/h (4 Bft) 90,88 %
24.01.2018 01:00 10,9 C 10,9 C 9,5 C 92 % 0 lf 1017,8 hPa 0,0 l/m 0,00 h 0,00 h 0 W/m 27,9 km/h (4 Bft) 97,55 %
24.01.2018 02:00 11,2 C 11,0 C 9,7 C 92 % 0 lf 1017,5 hPa 0,0 l/m 0,00 h 0,00 h 0 W/m 28,8 km/h (4 Bft) 96,94 %
24.01.2018 03:00 11,5 C 11,5 C 10,0 C 92 % 0 lf 1017,3 hPa 0,0 l/m 0,00 h 0,00 h 0 W/m 28,8 km/h (5 Bft) 93,72 %
24.01.2018 04:00 11,7 C 11,7 C 10,0 C 91 % 0 lf 1016,9 hPa 0,0 l/m 0,00 h 0,00 h 0 W/m 26,4 km/h (4 Bft) 99,00 %
24.01.2018 05:00 11,8 C 11,7 C 10,1 C 91 % 0 lf 1016,7 hPa 0,0 l/m 0,00 h 0,00 h 0 W/m 20,7 km/h (4 Bft) 97,34 %
24.01.2018 06:00 11,8 C 11,7 C 10,0 C 90 % 0 lf 1016,5 hPa 0,0 l/m 0,00 h 0,00 h 0 W/m 23,1 km/h (4 Bft) 95,36 %
24.01.2018 07:00 11,8 C 11,7 C 10,2 C 90 % 0 lf 1016,3 hPa 0,0 l/m 0,00 h 0,00 h 0 W/m 27,1 km/h (4 Bft) 97,59 %
24.01.2018 08:00 12,0 C 12,0 C 10,6 C 89 % 0 lf 1016,2 hPa 0,0 l/m 0,00 h 0,00 h 11 W/m 26,3 km/h (4 Bft) 96,17 %
24.01.2018 09:00 12,3 C 12,4 C 11,1 C 89 % 0 lf 1015,7 hPa 0,0 l/m 0,00 h 0,00 h 40 W/m 27,8 km/h (4 Bft) 95,68 %
24.01.2018 10:00 12,9 C 13,6 C 12,1 C 88 % 0 lf 1015,2 hPa 0,0 l/m 0,03 h 0,00 h 100 W/m 30,2 km/h (5 Bft) 97,84 %
24.01.2018 11:00 13,9 C 15,2 C 13,1 C 85 % 0 lf 1014,7 hPa 0,0 l/m 0,50 h 0,00 h 171 W/m 33,4 km/h (5 Bft) 94,24 %
24.01.2018 12:00 14,3 C 15,6 C 13,5 C 83 % 0 lf 1013,7 hPa 0,0 l/m 0,43 h 0,00 h 189 W/m 36,2 km/h (5 Bft) 98,05 %
24.01.2018 13:00 14,6 C 15,1 C 13,9 C 81 % 0 lf 1012,9 hPa 0,0 l/m 0,37 h 0,00 h 156 W/m 38,7 km/h (5 Bft) 96,23 %
24.01.2018 14:00 14,2 C 14,6 C 13,3 C 81 % 0 lf 1011,9 hPa 0,0 l/m 0,13 h 0,00 h 138 W/m 38,6 km/h (5 Bft) 95,80 %
24.01.2018 15:00 13,9 C 13,6 C 12,4 C 81 % 0 lf 1011,4 hPa 0,0 l/m 0,00 h 0,00 h 31 W/m 43,5 km/h (6 Bft) 97,08 %
24.01.2018 16:00 13,3 C 12,9 C 11,7 C 81 % 0 lf 1011,3 hPa 0,0 l/m 0,00 h 0,00 h 10 W/m 34,8 km/h (5 Bft) 96,37 %
24.01.2018 17:00 12,9 C 12,8 C 11,4 C 81 % 0 lf 1010,9 hPa 0,0 l/m 0,00 h 0,00 h 0 W/m 35,1 km/h (5 Bft) 95,13 %
24.01.2018 18:00 12,9 C 12,8 C 11,2 C 79 % 0 lf 1010,5 hPa 0,0 l/m 0,00 h 0,00 h 0 W/m 36,6 km/h (5 Bft) 98,87 %
24.01.2018 19:00 12,7 C 12,3 C 10,9 C 79 % 0 lf 1010,0 hPa 0,0 l/m 0,00 h 0,00 h 0 W/m 32,6 km/h (5 Bft) 95,87 %
24.01.2018 20:00 12,6 C 12,2 C 11,0 C 78 % 0 lf 1010,0 hPa 0,0 l/m 0,00 h 0,00 h 0 W/m 32,3 km/h (5 Bft) 94,29 %
24.01.2018 21:00 12,6 C 12,2 C 11,1 C 77 % 0 lf 1009,4 hPa 0,0 l/m 0,00 h 0,00 h 0 W/m 34,8 km/h (5 Bft) 97,95 %
24.01.2018 22:00 12,4 C 12,2 C 10,9 C 78 % 0 lf 1009,2 hPa 0,0 l/m 0,00 h 0,00 h 0 W/m 34,8 km/h (5 Bft) 96,79 %
24.01.2018 23:00 12,3 C 12,2 C 10,7 C 80 % 0 lf 1009,2 hPa 0,0 l/m 0,00 h 0,00 h 0 W/m 39,7 km/h (6 Bft) 94,67 %
25.01.2018 00:00 12,3 C 11,8 C 10,2 C 82 % 3 lf 1009,3 hPa 0,0 l/m 0,00 h 0,27 h 0 W/m 34,1 km/h (5 Bft) 98,08 %
25.01.2018 01:00 10,2 C 8,5 C 7,6 C 89 % 15 lf 1010,4 hPa 1,4 l/m 0,00 h 1,00 h 0 W/m 21,5 km/h (4 Bft) 95,45 %
25.01.2018 02:00 8,3 C 7,4 C 6,7 C 94 % 15 lf 1010,7 hPa 0,4 l/m 0,00 h 0,97 h 0 W/m 22,4 km/h (4 Bft) 97,64 %
25.01.2018 03:00 7,8 C 7,2 C 6,2 C 96 % 15 lf 1011,1 hPa 0,2 l/m 0,00 h 0,60 h 0 W/m 18,3 km/h (3 Bft) 96,15 %
25.01.2018 04:00 7,6 C 6,8 C 6,1 C 96 % 15 lf 1011,2 hPa 0,0 l/m 0,00 h 0,37 h 0 W/m 15,1 km/h (3 Bft) 94,63 %
25.01.2018 05:00 7,4 C 6,7 C 5,8 C 96 % 15 lf 1011,5 hPa 0,2 l/m 0,00 h 0,10 h 0 W/m 13,3 km/h (3 Bft) 97,80 %
25.01.2018 06:00 7,1 C 6,7 C 5,6 C 96 % 15 lf 1011,4 hPa 0,0 l/m 0,00 h 0,00 h 0 W/m 10,6 km/h (2 Bft) 97,72 %
25.01.2018 07:00 7,2 C 6,7 C 5,6 C 96 % 14 lf 1011,7 hPa 0,0 l/m 0,00 h 0,00 h 0 W/m 12,9 km/h (3 Bft) 94,16 %
25.01.2018 08:00 7,3 C 6,8 C 5,6 C 96 % 8 lf 1011,7 hPa 0,0 l/m 0,00 h 0,00 h 10 W/m 11,8 km/h (2 Bft) 97,44 %
25.01.2018 09:00 7,5 C 7,2 C 6,2 C 96 % 0 lf 1011,9 hPa 0,0 l/m 0,00 h 0,00 h 30 W/m 15,5 km/h (3 Bft) 96,80 %
25.01.2018 10:00 7,9 C 7,8 C 6,8 C 95 % 0 lf 1012,1 hPa 0,0 l/m 0,00 h 0,00 h 60 W/m 14,5 km/h (3 Bft) 96,30 %
25.01.2018 11:00 8,5 C 8,9 C 7,5 C 93 % 0 lf 1012,2 hPa 0,0 l/m 0,00 h 0,00 h 99 W/m 14,1 km/h (3 Bft) 96,37 %
25.01.2018 12:00 9,3 C 10,6 C 8,6 C 90 % 0 lf 1011,6 hPa 0,0 l/m 0,27 h 0,00 h 165 W/m 17,1 km/h (3 Bft) 94,74 %
25.01.2018 13:00 10,0 C 11,2 C 10,0 C 87 % 0 lf 1011,2 hPa 0,0 l/m 0,00 h 0,00 h 140 W/m 11,9 km/h (2 Bft) 98,16 %
25.01.2018 14:00 10,1 C 10,5 C 9,4 C 86 % 0 lf 1010,6 hPa 0,0 l/m 0,00 h 0,00 h 88 W/m 14,4 km/h (3 Bft) 96,91 %
25.01.2018 15:00 9,8 C 9,8 C 8,8 C 86 % 0 lf 1010,6 hPa 0,0 l/m 0,00 h 0,03 h 45 W/m 12,3 km/h (3 Bft) 94,24 %
25.01.2018 16:00 9,3 C 8,1 C 7,0 C 87 % 4 lf 1010,7 hPa 0,0 l/m 0,00 h 0,70 h 15 W/m 15,4 km/h (3 Bft) 97,23 %
25.01.2018 17:00 8,0 C 6,3 C 5,6 C 89 % 14 lf 1010,7 hPa 0,2 l/m 0,00 h 0,63 h 0 W/m 10,4 km/h (2 Bft) 97,93 %
25.01.2018 18:00 7,4 C 6,6 C 5,6 C 92 % 7 lf 1010,9 hPa 0,2 l/m 0,00 h 0,27 h 0 W/m 14,9 km/h (3 Bft) 95,02 %
25.01.2018 19:00 7,4 C 6,5 C 5,6 C 93 % 10 lf 1011,2 hPa 0,2 l/m 0,00 h 0,83 h 0 W/m 16,0 km/h (3 Bft) 96,80 %
25.01.2018 20:00 7,2 C 6,1 C 5,3 C 94 % 12 lf 1011,5 hPa 0,2 l/m 0,00 h 0,57 h 0 W/m 11,0 km/h (2 Bft) 96,08 %
25.01.2018 21:00 7,0 C 6,1 C 5,3 C 94 % 7 lf 1011,4 hPa 0,0 l/m 0,00 h 0,00 h 0 W/m 9,0 km/h (2 Bft) 97,51 %
25.01.2018 22:00 6,9 C 6,1 C 4,9 C 95 % 3 lf 1011,5 hPa 0,0 l/m 0,00 h 0,00 h 0 W/m 6,1 km/h (2 Bft) 95,29 %
25.01.2018 23:00 6,5 C 6,0 C 4,5 C 95 % 2 lf 1011,8 hPa 0,0 l/m 0,00 h 0,00 h 0 W/m 7,3 km/h (2 Bft) 96,02 %
26.01.2018 00:00 6,4 C 5,9 C 4,9 C 96 % 0 lf 1012,5 hPa 0,0 l/m 0,00 h 0,00 h 0 W/m 9,7 km/h (2 Bft) 96,32 %
26.01.2018 01:00 6,3 C 5,6 C 4,4 C 96 % 0 lf 1012,4 hPa 0,0 l/m 0,00 h 0,00 h 0 W/m 8,2 km/h (2 Bft) 96,08 %
26.01.2018 02:00 6,1 C 5,6 C 4,2 C 96 % 0 lf 1012,4 hPa 0,0 l/m 0,00 h 0,00 h 0 W/m 9,1 km/h (2 Bft) 97,44 %
26.01.2018 03:00 5,8 C 5,1 C 3,8 C 96 % 0 lf 1012,6 hPa 0,0 l/m 0,00 h 0,00 h 0 W/m 7,5 km/h (2 Bft) 92,76 %
26.01.2018 04:00 5,6 C 4,9 C 3,2 C 96 % 1 lf 1012,7 hPa 0,0 l/m 0,00 h 0,00 h 0 W/m 3,6 km/h (1 Bft) 97,21 %
26.01.2018 05:00 5,1 C 4,4 C 2,8 C 96 % 3 lf 1013,3 hPa 0,0 l/m 0,00 h 0,00 h 0 W/m 1,3 km/h (1 Bft) 96,82 %
26.01.2018 06:00 4,9 C 4,4 C 2,7 C 96 % 5 lf 1013,7 hPa 0,0 l/m 0,00 h 0,00 h 0 W/m 1,2 km/h (1 Bft) 94,62 %
26.01.2018 07:00 4,8 C 4,5 C 3,1 C 97 % 10 lf 1014,2 hPa 0,0 l/m 0,00 h 0,00 h 0 W/m 0,8 km/h (0 Bft) 95,46 %
26.01.2018 08:00 5,0 C 4,9 C 3,5 C 97 % 10 lf 1015,1 hPa 0,0 l/m 0,00 h 0,00 h 11 W/m 4,1 km/h (1 Bft) 98,85 %
26.01.2018 09:00 5,3 C 5,5 C 3,9 C 97 % 4 lf 1015,7 hPa 0,0 l/m 0,00 h 0,00 h 38 W/m 3,2 km/h (1 Bft) 93,95 %
26.01.2018 10:00 5,6 C 6,3 C 5,0 C 98 % 0 lf 1016,2 hPa 0,0 l/m 0,00 h 0,00 h 87 W/m 5,9 km/h (2 Bft) 98,15 %
26.01.2018 11:00 6,5 C 9,8 C 6,4 C 98 % 0 lf 1017,0 hPa 0,0 l/m 0,27 h 0,00 h 175 W/m 8,9 km/h (2 Bft) 95,54 %
26.01.2018 12:00 7,5 C 10,6 C 7,2 C 97 % 0 lf 1017,5 hPa 0,0 l/m 0,60 h 0,00 h 202 W/m 12,5 km/h (3 Bft) 96,08 %
26.01.2018 13:00 8,5 C 11,6 C 7,9 C 92 % 0 lf 1017,7 hPa 0,0 l/m 0,90 h 0,00 h 210 W/m 12,3 km/h (3 Bft) 96,33 %
26.01.2018 14:00 8,3 C 9,0 C 7,3 C 89 % 0 lf 1018,2 hPa 0,0 l/m 0,00 h 0,00 h 118 W/m 12,4 km/h (3 Bft) 96,56 %
26.01.2018 15:00 8,0 C 8,6 C 6,8 C 88 % 0 lf 1018,8 hPa 0,0 l/m 0,13 h 0,00 h 96 W/m 11,5 km/h (2 Bft) 95,80 %
26.01.2018 16:00 7,7 C 7,8 C 6,2 C 88 % 0 lf 1019,6 hPa 0,0 l/m 0,50 h 0,00 h 49 W/m 10,6 km/h (2 Bft) 98,05 %
26.01.2018 17:00 7,4 C 7,2 C 5,6 C 88 % 0 lf 1020,5 hPa 0,0 l/m 0,00 h 0,00 h 6 W/m 10,1 km/h (2 Bft) 94,02 %
26.01.2018 18:00 7,2 C 6,5 C 5,3 C 88 % 0 lf 1021,3 hPa 0,0 l/m 0,00 h 0,00 h 0 W/m 5,3 km/h (1 Bft) 97,21 %
26.01.2018 19:00 6,8 C 5,4 C 4,1 C 89 % 0 lf 1022,0 hPa 0,0 l/m 0,00 h 0,00 h 0 W/m 1,3 km/h (1 Bft) 97,99 %
26.01.2018 20:00 5,6 C 4,0 C 2,2 C 89 % 1 lf 1022,8 hPa 0,0 l/m 0,00 h 0,00 h 0 W/m 2,2 km/h (1 Bft) 96,45 %
26.01.2018 21:00 4,8 C 3,9 C 2,5 C 91 % 1 lf 1023,6 hPa 0,0 l/m 0,00 h 0,00 h 0 W/m 0,0 km/h (0 Bft) 95,14 %
26.01.2018 22:00 4,6 C 4,2 C 3,3 C 93 % 0 lf 1024,5 hPa 0,0 l/m 0,00 h 0,00 h 0 W/m 0,8 km/h (0 Bft) 97,05 %
26.01.2018 23:00 4,8 C 4,6 C 3,9 C 94 % 0 lf 1025,0 hPa 0,0 l/m 0,00 h 0,00 h 0 W/m 1,2 km/h (1 Bft) 96,12 %
27.01.2018 00:00 4,9 C 4,7 C 3,9 C 95 % 0 lf 1025,5 hPa 0,0 l/m 0,00 h 0,00 h 0 W/m 0,0 km/h (0 Bft) 98,21 %
27.01.2018 01:00 5,0 C 4,8 C 3,7 C 95 % 0 lf 1025,8 hPa 0,0 l/m 0,00 h 0,00 h 0 W/m 1,0 km/h (0 Bft) 95,02 %
27.01.2018 02:00 4,9 C 4,5 C 3,6 C 95 % 0 lf 1026,2 hPa 0,0 l/m 0,00 h 0,00 h 0 W/m 5,7 km/h (1 Bft) 96,29 %
27.01.2018 03:00 4,8 C 4,0 C 2,9 C 96 % 1 lf 1026,5 hPa 0,0 l/m 0,00 h 0,00 h 0 W/m 4,8 km/h (1 Bft) 97,86 %
27.01.2018 04:00 4,0 C 2,2 C 0,7 C 95 % 5 lf 1026,9 hPa 0,0 l/m 0,00 h 0,00 h 0 W/m 1,0 km/h (0 Bft) 96,63 %
27.01.2018 05:00 3,2 C 2,8 C 1,8 C 95 % 13 lf 1027,7 hPa 0,0 l/m 0,00 h 0,00 h 0 W/m 5,6 km/h (1 Bft) 97,45 %
27.01.2018 06:00 3,6 C 3,3 C 2,7 C 96 % 14 lf 1028,4 hPa 0,0 l/m 0,00 h 0,00 h 0 W/m 2,0 km/h (1 Bft) 94,10 %
27.01.2018 07:00 4,0 C 3,8 C 3,0 C 97 % 14 lf 1029,0 hPa 0,0 l/m 0,00 h 0,00 h 0 W/m 4,7 km/h (1 Bft) 98,57 %
27.01.2018 08:00 4,4 C 4,2 C 3,3 C 97 % 14 lf 1029,7 hPa 0,0 l/m 0,00 h 0,00 h 7 W/m 7,7 km/h (2 Bft) 96,65 %
27.01.2018 09:00 4,8 C 5,2 C 4,3 C 97 % 4 lf 1029,9 hPa 0,0 l/m 0,00 h 0,00 h 45 W/m 6,1 km/h (2 Bft) 95,22 %
27.01.2018 10:00 5,5 C 9,3 C 5,6 C 98 % 0 lf 1030,0 hPa 0,0 l/m 0,57 h 0,00 h 172 W/m 10,1 km/h (2 Bft) 96,74 %
27.01.2018 11:00 6,6 C 12,8 C 5,9 C 93 % 0 lf 1030,2 hPa 0,0 l/m 0,80 h 0,00 h 251 W/m 19,2 km/h (3 Bft) 97,22 %
27.01.2018 12:00 7,0 C 8,0 C 7,0 C 86 % 0 lf 1030,2 hPa 0,0 l/m 0,00 h 0,00 h 131 W/m 17,0 km/h (3 Bft) 95,97 %
27.01.2018 13:00 7,5 C 10,1 C 7,5 C 83 % 0 lf 1029,5 hPa 0,0 l/m 0,40 h 0,00 h 199 W/m 18,0 km/h (3 Bft) 95,80 %
27.01.2018 14:00 8,4 C 13,6 C 7,6 C 79 % 0 lf 1028,8 hPa 0,0 l/m 0,90 h 0,00 h 226 W/m 19,4 km/h (3 Bft) 98,33 %
27.01.2018 15:00 8,7 C 10,4 C 7,0 C 76 % 0 lf 1028,8 hPa 0,0 l/m 0,47 h 0,00 h 123 W/m 22,6 km/h (4 Bft) 97,51 %
27.01.2018 16:00 8,0 C 7,8 C 6,0 C 79 % 0 lf 1028,6 hPa 0,0 l/m 0,10 h 0,00 h 47 W/m 13,8 km/h (3 Bft) 95,55 %
27.01.2018 17:00 7,2 C 6,5 C 4,6 C 82 % 0 lf 1028,4 hPa 0,2 l/m 0,00 h 0,10 h 7 W/m 13,5 km/h (3 Bft) 96,51 %
27.01.2018 18:00 6,9 C 6,7 C 5,0 C 81 % 0 lf 1028,1 hPa 0,0 l/m 0,00 h 0,00 h 0 W/m 19,1 km/h (3 Bft) 96,44 %
27.01.2018 19:00 6,9 C 6,7 C 5,2 C 81 % 0 lf 1027,7 hPa 0,0 l/m 0,00 h 0,00 h 0 W/m 21,3 km/h (4 Bft) 95,72 %
27.01.2018 20:00 6,8 C 6,7 C 5,6 C 79 % 0 lf 1027,3 hPa 0,0 l/m 0,00 h 0,00 h 0 W/m 28,8 km/h (5 Bft) 98,12 %
27.01.2018 21:00 6,7 C 6,4 C 5,0 C 78 % 1 lf 1026,8 hPa 0,0 l/m 0,00 h 0,47 h 0 W/m 28,7 km/h (4 Bft) 95,09 %
27.01.2018 22:00 6,6 C 6,3 C 4,7 C 79 % 0 lf 1026,9 hPa 0,0 l/m 0,00 h 0,23 h 0 W/m 25,9 km/h (4 Bft) 96,16 %
27.01.2018 23:00 6,7 C 6,7 C 5,5 C 78 % 0 lf 1026,6 hPa 0,0 l/m 0,00 h 0,00 h 0 W/m 36,0 km/h (5 Bft) 98,29 %
28.01.2018 00:00 6,2 C 5,6 C 4,5 C 84 % 5 lf 1026,8 hPa 0,0 l/m 0,00 h 0,07 h 0 W/m 37,5 km/h (5 Bft) 96,05 %
28.01.2018 01:00 5,1 C 4,4 C 3,4 C 93 % 15 lf 1026,9 hPa 0,0 l/m 0,00 h 0,50 h 0 W/m 31,0 km/h (5 Bft) 95,37 %
28.01.2018 02:00 5,3 C 4,9 C 3,9 C 95 % 15 lf 1026,6 hPa 0,0 l/m 0,00 h 0,63 h 0 W/m 36,0 km/h (5 Bft) 97,79 %
28.01.2018 03:00 5,7 C 5,6 C 4,3 C 95 % 15 lf 1026,8 hPa 0,0 l/m 0,00 h 0,63 h 0 W/m 34,9 km/h (5 Bft) 94,24 %
28.01.2018 04:00 6,0 C 5,7 C 4,4 C 96 % 15 lf 1026,8 hPa 0,2 l/m 0,00 h 0,87 h 0 W/m 35,1 km/h (5 Bft) 99,25 %
28.01.2018 05:00 6,3 C 6,1 C 5,0 C 96 % 14 lf 1027,1 hPa 0,0 l/m 0,00 h 0,45 h 0 W/m 29,8 km/h (5 Bft) 96,53 %
28.01.2018 06:00 6,6 C 6,4 C 5,1 C 97 % 15 lf 1027,4 hPa 0,0 l/m 0,00 h 0,33 h 0 W/m 31,9 km/h (5 Bft) 95,72 %
28.01.2018 07:00 6,8 C 6,7 C 5,6 C 97 % 2 lf 1027,9 hPa 0,0 l/m 0,00 h 0,33 h 0 W/m 29,6 km/h (5 Bft) 98,14 %
28.01.2018 08:00 7,0 C 6,9 C 5,7 C 97 % 0 lf 1028,6 hPa 0,0 l/m 0,00 h 0,07 h 6 W/m 26,6 km/h (4 Bft) 97,37 %
28.01.2018 09:00 7,5 C 7,6 C 6,4 C 98 % 0 lf 1029,0 hPa 0,0 l/m 0,00 h 0,00 h 16 W/m 23,9 km/h (4 Bft) 93,73 %
28.01.2018 10:00 8,0 C 8,1 C 6,9 C 98 % 0 lf 1029,4 hPa 0,0 l/m 0,00 h 0,00 h 29 W/m 25,1 km/h (4 Bft) 99,36 %
28.01.2018 11:00 8,4 C 8,9 C 7,6 C 98 % 0 lf 1029,9 hPa 0,0 l/m 0,00 h 0,00 h 66 W/m 23,8 km/h (4 Bft) 94,74 %
28.01.2018 12:00 9,2 C 10,2 C 8,9 C 97 % 0 lf 1029,8 hPa 0,0 l/m 0,07 h 0,00 h 112 W/m 27,5 km/h (4 Bft) 97,14 %
28.01.2018 13:00 9,5 C 10,0 C 8,9 C 94 % 0 lf 1029,9 hPa 0,0 l/m 0,00 h 0,00 h 83 W/m 26,4 km/h (4 Bft) 96,56 %
28.01.2018 14:00 10,0 C 11,7 C 9,9 C 92 % 0 lf 1029,3 hPa 0,0 l/m 0,67 h 0,00 h 177 W/m 30,7 km/h (5 Bft) 95,92 %
28.01.2018 15:00 10,7 C 11,8 C 9,8 C 87 % 0 lf 1028,9 hPa 0,0 l/m 0,57 h 0,00 h 124 W/m 35,7 km/h (5 Bft) 97,00 %
28.01.2018 16:00 10,7 C 10,7 C 9,5 C 88 % 0 lf 1028,9 hPa 0,0 l/m 0,00 h 0,00 h 28 W/m 32,4 km/h (5 Bft) 97,23 %
28.01.2018 17:00 10,7 C 10,6 C 9,4 C 90 % 0 lf 1029,2 hPa 0,0 l/m 0,00 h 0,00 h 6 W/m 28,3 km/h (4 Bft) 95,02 %
28.01.2018 18:00 10,6 C 10,6 C 9,4 C 92 % 0 lf 1029,5 hPa 0,0 l/m 0,00 h 0,00 h 0 W/m 31,5 km/h (5 Bft) 98,94 %
28.01.2018 19:00 10,4 C 10,1 C 9,1 C 93 % 0 lf 1029,5 hPa 0,0 l/m 0,00 h 0,00 h 0 W/m 35,7 km/h (5 Bft) 95,16 %
28.01.2018 20:00 10,2 C 10,0 C 8,9 C 94 % 0 lf 1029,6 hPa 0,0 l/m 0,00 h 0,00 h 0 W/m 35,5 km/h (5 Bft) 95,80 %
28.01.2018 21:00 10,3 C 10,1 C 9,0 C 92 % 0 lf 1029,3 hPa 0,0 l/m 0,00 h 0,00 h 0 W/m 34,4 km/h (5 Bft) 97,92 %
28.01.2018 22:00 10,4 C 10,0 C 8,9 C 91 % 0 lf 1029,4 hPa 0,0 l/m 0,00 h 0,00 h 0 W/m 35,2 km/h (5 Bft) 96,92 %
28.01.2018 23:00 10,2 C 9,9 C 8,8 C 92 % 0 lf 1029,4 hPa 0,0 l/m 0,00 h 0,00 h 0 W/m 34,7 km/h (5 Bft) 94,37 %
Min-Datum _ 22.01.18 22.01.18 22.01.18 27.01.18 22.01.18 22.01.18 - - - - 25.01.18 24.01.18
_ Min-Zeit 00:52 00:04 00:18 15:10 11:56 06:26 - - - - 22:46 00:02
Minimum _ 1,6 C 1,1 C 0,0 C 76 % 0 lf 1004,2 hPa - - - - 0,0 km/h (0 Bft) 16,67 %
Max-Datum _ 24.01.18 23.01.18 24.01.18 22.01.18 22.01.18 27.01.18 25.01.18 26.01.18 22.01.18 27.01.18 24.01.18 22.01.18
_ Max-Zeit 12:56 13:54 13:20 10:32 00:26 11:12 01:10 12:38 04:05 11:34 12:22 00:28
Maximum _ 14,7 C 16,7 C 14,4 C 100 % 15 lf 1030,3 hPa 1,4 l/m 0,07 h 0,08 h 391 W/m 58,6 km/h
SW (7 Bft)
100,00 %
Durchschnitt _ 7,8 C 7,9 C 6,4 C 91 % 4 lf 1018,1 hPa #8,2 l/m #10:46 h #21:19 h 87 W/m 19,3 km/h (3 Bft) 96,37 %
© 2018 W. Hausmann